デニング彗星

P/1894 F1 ( Denning ) 2016

English version
Home page
Updated on August 4, 2024

---------------------------------------------------------------------

・ プロフィール

・ 軌道要素

                    Epoch = 2016 Sept. 9.0 TT
     T = 2016 Sept. 2.03779 TT        Peri. = 108.58716
     e = 0.6451219                    Node  =  22.26157 2000.0
     q = 1.5742786 AU                 Incl. =   4.00547
       a =  4.4361102 AU   n = 0.10548740   P =   9.34 years

・ 光度変化

        H = 19.0  G = 0.15

---------------------------------------------------------------------

軌道要素は、CBET 5425に掲載されたものです。
光度グラフはComet for Windowsで作成したものです。

---------------------------------------------------------------------

Copyright(C) Seiichi Yoshida (comet@aerith.net). All rights reserved.